Location: ????? ??????
(37.8317°N, 23.8750°E)
Time: 16:29:37
(UTC+00:00)

Aureole 3 - Pass Details

Date: 20 January 2021
Orbit: 381 x 1231 km, 82.5° (Epoch: 01 March)

Event Time Altitude Azimuth Distance (km) Brightness Sun altitude
Rises 17:13:15 0° 351° (N) 2,556 6.7 -19.3°
Reaches altitude 10° 17:15:29 10° 351° (N) 1,578 5.6 -19.7°
Maximum altitude 17:18:49 80° 263° (W) 418 2.7 -20.4°
Drops below altitude 10° 17:21:47 10° 177° (S) 1,406 5.5 -21.0°
Sets 17:23:40 0° 176° (S) 2,242 6.5 -21.3°
